DWI2004 MDSD-KBOS

Flight info

Callsign DWI2004
Flight time 3h 46m
Altitude 36000
Route LERED4J LERED L216 GTK/N0469F350 DCT LAMER/M080F360 L453 SAUCR/M080F370 Y485 CHUBY/M080F360 Y485 HOBOH/M080F370 Y485 SILLY/N0460F370 Y485 YAALE Y495 MOUGH/N0461F380 Y495 OWENZ DCT SHERL/N0455F370 DCT ORCHA DCT ROBUC ROBUC3
Aircraft B38M/M-SDE1FGHILORVWXY/HB1

Departure

Time 2026-05-07 19:04
Airport Las Américas International Airport (MDSD)

Arrival

Time 2026-05-07 22:50
Airport Boston Logan International Airport (KBOS)
Time Latitude Longitude Altitude Speed Heading
2026-05-07 18:41 18.43112 -69.67553 70 ft 0 kts 290°
2026-05-07 18:44 18.43112 -69.67552 70 ft 0 kts 290°
2026-05-07 18:52 18.43110 -69.67546 61 ft 2 kts 289°
2026-05-07 18:52 18.43104 -69.67529 67 ft 2 kts 290°
2026-05-07 18:52 18.43098 -69.67513 60 ft 2 kts 290°
2026-05-07 18:53 18.43093 -69.67496 63 ft 2 kts 291°
2026-05-07 18:53 18.43086 -69.67480 68 ft 2 kts 293°
2026-05-07 18:53 18.43079 -69.67465 61 ft 2 kts 303°
2026-05-07 18:53 18.43069 -69.67451 62 ft 2 kts 311°
2026-05-07 18:54 18.43057 -69.67438 57 ft 2 kts 326°
2026-05-07 18:54 18.43043 -69.67432 57 ft 1 kts 339°
2026-05-07 18:54 18.43041 -69.67431 61 ft 0 kts 339°
2026-05-07 18:57 18.43060 -69.67439 62 ft 7 kts 338°
2026-05-07 18:57 18.43119 -69.67463 56 ft 10 kts 342°
2026-05-07 18:58 18.43193 -69.67489 67 ft 14 kts 341°
2026-05-07 18:58 18.43301 -69.67529 67 ft 18 kts 341°
2026-05-07 18:58 18.43416 -69.67526 67 ft 17 kts 13°
2026-05-07 18:58 18.43527 -69.67561 70 ft 17 kts 339°
2026-05-07 18:59 18.43642 -69.67607 67 ft 18 kts 339°
2026-05-07 18:59 18.43763 -69.67655 67 ft 19 kts 339°
2026-05-07 18:59 18.43873 -69.67700 68 ft 18 kts 338°
2026-05-07 18:59 18.44001 -69.67752 65 ft 21 kts 339°
2026-05-07 19:00 18.44117 -69.67782 64 ft 11 kts 26°
2026-05-07 19:00 18.44145 -69.67725 70 ft 11 kts 70°
2026-05-07 19:01 18.44155 -69.67697 64 ft 11 kts 70°
2026-05-07 19:01 18.44185 -69.67614 63 ft 14 kts 69°
2026-05-07 19:01 18.44135 -69.67513 69 ft 29 kts 159°
2026-05-07 19:01 18.43697 -69.67356 72 ft 104 kts 160°
2026-05-07 19:02 18.42974 -69.67092 73 ft 157 kts 162°
2026-05-07 19:02 18.42840 -69.67047 86 ft 163 kts 161°
2026-05-07 19:03 18.42345 -69.66880 222 ft 177 kts 162°
2026-05-07 19:04 18.41341 -69.66539 950 ft 181 kts 158°
2026-05-07 19:05 18.40227 -69.66071 2094 ft 171 kts 156°
2026-05-07 19:05 18.39085 -69.65590 2709 ft 185 kts 155°
2026-05-07 19:05 18.37996 -69.64771 2864 ft 201 kts 125°
2026-05-07 19:05 18.37516 -69.63363 2966 ft 215 kts 92°
2026-05-07 19:06 18.37818 -69.61778 3068 ft 229 kts 70°
2026-05-07 19:06 18.38963 -69.58548 3523 ft 237 kts 70°
2026-05-07 19:06 18.39807 -69.57008 4236 ft 253 kts 47°
2026-05-07 19:07 18.41294 -69.55971 4907 ft 268 kts 19°
2026-05-07 19:07 18.43127 -69.55789 6017 ft 267 kts 353°
2026-05-07 19:07 18.43585 -69.55870 6242 ft 270 kts 348°
2026-05-07 19:08 18.45172 -69.56339 6943 ft 279 kts 345°
2026-05-07 19:08 18.47049 -69.56900 7785 ft 282 kts 345°
2026-05-07 19:08 18.48945 -69.57479 8676 ft 286 kts 344°
2026-05-07 19:09 18.50876 -69.58074 9531 ft 290 kts 343°
2026-05-07 19:09 18.52833 -69.58681 10300 ft 297 kts 343°
2026-05-07 19:09 18.54872 -69.59316 10714 ft 316 kts 343°
2026-05-07 19:09 18.57052 -69.59995 11018 ft 336 kts 343°
2026-05-07 19:10 18.59351 -69.60713 11342 ft 353 kts 343°
2026-05-07 19:10 18.61746 -69.61460 11814 ft 363 kts 343°
2026-05-07 19:10 18.64160 -69.62214 12595 ft 363 kts 343°
2026-05-07 19:10 18.66600 -69.62974 13227 ft 367 kts 343°
2026-05-07 19:11 18.69067 -69.63726 13874 ft 370 kts 343°
2026-05-07 19:11 18.71534 -69.64479 14424 ft 374 kts 343°
2026-05-07 19:11 18.74061 -69.65251 14992 ft 377 kts 343°
2026-05-07 19:11 18.76592 -69.66025 15554 ft 380 kts 343°
2026-05-07 19:12 18.79107 -69.66795 16087 ft 383 kts 343°
2026-05-07 19:12 18.81713 -69.67592 16612 ft 386 kts 344°
2026-05-07 19:12 18.84266 -69.68374 17130 ft 388 kts 344°
2026-05-07 19:12 18.86872 -69.69172 17616 ft 391 kts 344°
2026-05-07 19:13 18.89435 -69.70162 18091 ft 395 kts 335°
2026-05-07 19:13 18.91933 -69.71389 18537 ft 398 kts 336°
2026-05-07 19:13 18.94449 -69.72626 18941 ft 400 kts 336°
2026-05-07 19:13 18.96977 -69.73872 19359 ft 402 kts 336°
2026-05-07 19:14 18.99520 -69.75126 19778 ft 404 kts 336°
2026-05-07 19:14 19.02073 -69.76387 20171 ft 407 kts 336°
2026-05-07 19:14 19.04648 -69.77659 20560 ft 409 kts 336°
2026-05-07 19:14 19.07232 -69.78936 20954 ft 411 kts 336°
2026-05-07 19:15 19.09825 -69.80218 21344 ft 413 kts 336°
2026-05-07 19:15 19.12435 -69.81508 21730 ft 415 kts 336°
2026-05-07 19:15 19.15061 -69.82808 22110 ft 417 kts 336°
2026-05-07 19:15 19.17693 -69.84111 22483 ft 419 kts 336°
2026-05-07 19:16 19.20337 -69.85419 22850 ft 421 kts 336°
2026-05-07 19:16 19.22999 -69.86737 23196 ft 423 kts 336°
2026-05-07 19:16 19.25674 -69.88063 23547 ft 425 kts 336°
2026-05-07 19:16 19.28354 -69.89391 23842 ft 427 kts 336°
2026-05-07 19:17 19.31016 -69.90710 24137 ft 428 kts 336°
2026-05-07 19:17 19.33715 -69.92049 24422 ft 430 kts 336°
2026-05-07 19:17 19.36429 -69.93395 24717 ft 431 kts 336°
2026-05-07 19:17 19.39142 -69.94742 24995 ft 432 kts 336°
2026-05-07 19:18 19.41845 -69.96084 25280 ft 434 kts 336°
2026-05-07 19:18 19.44612 -69.97459 25567 ft 436 kts 336°
2026-05-07 19:18 19.46475 -69.98384 25767 ft 436 kts 336°
2026-05-07 19:18 19.49229 -69.99754 26041 ft 438 kts 336°
2026-05-07 19:19 19.51961 -70.01112 26316 ft 440 kts 336°
2026-05-07 19:19 19.54738 -70.02493 26588 ft 441 kts 336°
2026-05-07 19:19 19.57522 -70.03879 26868 ft 443 kts 336°
2026-05-07 19:19 19.60318 -70.05270 27134 ft 445 kts 336°
2026-05-07 19:20 19.63119 -70.06666 27402 ft 446 kts 336°
2026-05-07 19:20 19.65942 -70.08072 27659 ft 448 kts 336°
2026-05-07 19:20 19.68760 -70.09477 27911 ft 450 kts 336°
2026-05-07 19:20 19.71601 -70.10893 28171 ft 451 kts 336°
2026-05-07 19:21 19.74447 -70.12313 28416 ft 453 kts 336°
2026-05-07 19:21 19.77303 -70.13739 28649 ft 455 kts 336°
2026-05-07 19:21 19.80175 -70.15172 28897 ft 456 kts 336°
2026-05-07 19:21 19.83054 -70.16610 29131 ft 458 kts 336°
2026-05-07 19:22 19.85942 -70.18053 29360 ft 460 kts 336°
2026-05-07 19:22 19.88846 -70.19505 29602 ft 461 kts 336°
2026-05-07 19:22 19.91754 -70.20958 29894 ft 461 kts 336°
2026-05-07 19:22 19.94648 -70.22406 30182 ft 461 kts 336°
2026-05-07 19:23 19.97515 -70.23841 30471 ft 460 kts 336°
2026-05-07 19:23 20.00443 -70.25306 30787 ft 459 kts 337°
2026-05-07 19:23 20.03287 -70.26730 31091 ft 457 kts 337°
2026-05-07 19:23 20.06161 -70.28170 31411 ft 456 kts 337°
2026-05-07 19:24 20.09059 -70.29623 31738 ft 454 kts 337°
2026-05-07 19:24 20.11882 -70.31039 32060 ft 453 kts 337°
2026-05-07 19:24 20.14730 -70.32467 32392 ft 452 kts 338°
2026-05-07 19:24 20.17566 -70.33890 32721 ft 450 kts 338°
2026-05-07 19:25 20.20389 -70.35308 33077 ft 448 kts 338°
2026-05-07 19:25 20.23208 -70.36723 33437 ft 446 kts 338°
2026-05-07 19:25 20.26002 -70.38127 33788 ft 444 kts 338°
2026-05-07 19:25 20.28793 -70.39530 34105 ft 443 kts 338°
2026-05-07 19:26 20.31579 -70.40932 34409 ft 441 kts 338°
2026-05-07 19:26 20.34350 -70.42326 34705 ft 439 kts 338°
2026-05-07 19:26 20.37109 -70.43715 34980 ft 438 kts 338°
2026-05-07 19:26 20.39843 -70.45145 35241 ft 438 kts 332°
2026-05-07 19:27 20.42415 -70.46888 35508 ft 438 kts 331°
2026-05-07 19:27 20.44995 -70.48598 35756 ft 437 kts 332°
2026-05-07 19:27 20.47577 -70.50288 35979 ft 436 kts 332°
2026-05-07 19:27 20.50166 -70.51972 36046 ft 435 kts 332°
2026-05-07 19:28 20.55315 -70.55313 36031 ft 432 kts 332°
2026-05-07 19:28 20.60423 -70.58628 36031 ft 433 kts 332°
2026-05-07 19:29 20.65569 -70.61970 36028 ft 433 kts 332°
2026-05-07 19:29 20.70718 -70.65316 36032 ft 433 kts 332°
2026-05-07 19:30 20.75865 -70.68664 36028 ft 434 kts 331°
2026-05-07 19:30 20.81024 -70.72023 36033 ft 434 kts 331°
2026-05-07 19:31 20.86174 -70.75379 36026 ft 434 kts 331°
2026-05-07 19:31 20.91332 -70.78742 36028 ft 434 kts 331°
2026-05-07 19:32 20.96492 -70.82110 36030 ft 434 kts 331°
2026-05-07 19:32 21.01642 -70.85478 36030 ft 434 kts 331°
2026-05-07 19:33 21.06797 -70.88866 36029 ft 435 kts 330°
2026-05-07 19:33 21.11952 -70.92256 36030 ft 435 kts 330°
2026-05-07 19:34 21.17109 -70.95649 36031 ft 435 kts 330°
2026-05-07 19:34 21.22234 -70.99026 36034 ft 435 kts 330°
2026-05-07 19:35 21.27424 -71.02447 36035 ft 435 kts 330°
2026-05-07 19:35 21.32556 -71.05833 36035 ft 436 kts 330°
2026-05-07 19:36 21.37718 -71.09241 36034 ft 436 kts 330°
2026-05-07 19:36 21.43157 -71.11968 36027 ft 431 kts 350°
2026-05-07 19:37 21.46140 -71.12184 36033 ft 431 kts
2026-05-07 19:37 21.49102 -71.11651 36042 ft 433 kts 11°
2026-05-07 19:37 21.54982 -71.10135 36040 ft 435 kts 13°
2026-05-07 19:38 21.60792 -71.08469 36039 ft 435 kts 14°
2026-05-07 19:38 21.66632 -71.06743 36041 ft 435 kts 14°
2026-05-07 19:39 21.72462 -71.05011 36040 ft 435 kts 14°
2026-05-07 19:39 21.78308 -71.03272 36040 ft 435 kts 14°
2026-05-07 19:40 21.84146 -71.01534 36041 ft 435 kts 14°
2026-05-07 19:40 21.89976 -70.99798 36038 ft 435 kts 14°
2026-05-07 19:41 21.95813 -70.98057 36046 ft 435 kts 14°
2026-05-07 19:41 22.01617 -70.96325 36045 ft 435 kts 14°
2026-05-07 19:42 22.07451 -70.94582 36044 ft 435 kts 14°
2026-05-07 19:42 22.13302 -70.92833 36042 ft 436 kts 14°
2026-05-07 19:43 22.19141 -70.91086 36046 ft 436 kts 14°
2026-05-07 19:43 22.24977 -70.89338 36049 ft 436 kts 14°
2026-05-07 19:44 22.30825 -70.87585 36054 ft 436 kts 14°
2026-05-07 19:44 22.36660 -70.85834 36053 ft 436 kts 13°
2026-05-07 19:45 22.42508 -70.84079 36049 ft 436 kts 13°
2026-05-07 19:45 22.48355 -70.82321 36051 ft 436 kts 13°
2026-05-07 19:46 22.54199 -70.80564 36044 ft 436 kts 13°
2026-05-07 19:46 22.60012 -70.78813 36048 ft 436 kts 13°
2026-05-07 19:47 22.65871 -70.77048 36050 ft 436 kts 13°
2026-05-07 19:47 22.71719 -70.75284 36056 ft 436 kts 13°
2026-05-07 19:48 22.77555 -70.73523 36057 ft 437 kts 13°
2026-05-07 19:48 22.83433 -70.71747 36049 ft 437 kts 13°
2026-05-07 19:49 22.89290 -70.69976 36050 ft 437 kts 13°
2026-05-07 19:49 22.95145 -70.68204 36056 ft 437 kts 13°
2026-05-07 19:50 23.01007 -70.66428 36045 ft 437 kts 13°
2026-05-07 19:50 23.06867 -70.64651 36056 ft 437 kts 13°
2026-05-07 19:51 23.12702 -70.62880 36051 ft 437 kts 13°
2026-05-07 19:51 23.18566 -70.61099 36056 ft 438 kts 13°
2026-05-07 19:52 23.24434 -70.59315 36050 ft 438 kts 13°
2026-05-07 19:52 23.30297 -70.57531 36057 ft 438 kts 13°
2026-05-07 19:53 23.36173 -70.55741 36062 ft 438 kts 13°
2026-05-07 19:53 23.42049 -70.53949 36054 ft 438 kts 13°
2026-05-07 19:54 23.47925 -70.52156 36065 ft 439 kts 13°
2026-05-07 19:54 23.53769 -70.50371 36067 ft 439 kts 13°
2026-05-07 19:55 23.59655 -70.48572 36064 ft 439 kts 13°
2026-05-07 19:55 23.65545 -70.46769 36057 ft 439 kts 13°
2026-05-07 19:56 23.71427 -70.44968 36056 ft 440 kts 13°
2026-05-07 19:56 23.77321 -70.43161 36068 ft 440 kts 13°
2026-05-07 19:57 23.83222 -70.41350 36056 ft 440 kts 13°
2026-05-07 19:57 23.89077 -70.39551 36058 ft 440 kts 13°
2026-05-07 19:58 23.94967 -70.37740 36060 ft 440 kts 13°
2026-05-07 19:58 24.00865 -70.35925 36063 ft 440 kts 13°
2026-05-07 19:59 24.06766 -70.34108 36060 ft 440 kts 13°
2026-05-07 19:59 24.12658 -70.32291 36062 ft 440 kts 13°
2026-05-07 20:00 24.18562 -70.30469 36060 ft 441 kts 13°
2026-05-07 20:00 24.24462 -70.28646 36063 ft 441 kts 13°
2026-05-07 20:01 24.30371 -70.26819 36063 ft 441 kts 13°
2026-05-07 20:01 24.36279 -70.24990 36064 ft 441 kts 13°
2026-05-07 20:02 24.42191 -70.23159 36063 ft 441 kts 13°
2026-05-07 20:02 24.48098 -70.21327 36066 ft 441 kts 13°
2026-05-07 20:03 24.53981 -70.19501 36064 ft 442 kts 13°
2026-05-07 20:03 24.59893 -70.17663 36062 ft 442 kts 13°
2026-05-07 20:04 24.65816 -70.15821 36062 ft 442 kts 13°
2026-05-07 20:04 24.71740 -70.13977 36062 ft 442 kts 13°
2026-05-07 20:05 24.77661 -70.12132 36065 ft 443 kts 13°
2026-05-07 20:05 24.83591 -70.10283 36065 ft 443 kts 13°
2026-05-07 20:06 24.89523 -70.08431 36067 ft 443 kts 13°
2026-05-07 20:06 24.95456 -70.06577 36070 ft 443 kts 13°
2026-05-07 20:07 25.00442 -70.05662 36057 ft 434 kts 353°
2026-05-07 20:07 25.07356 -70.06915 36062 ft 434 kts 347°
2026-05-07 20:08 25.13284 -70.08224 36068 ft 434 kts 347°
2026-05-07 20:08 25.18237 -70.09353 36068 ft 434 kts 347°
2026-05-07 20:09 25.24148 -70.10712 36069 ft 434 kts 346°
2026-05-07 20:10 25.32982 -70.12749 36068 ft 434 kts 346°
2026-05-07 20:10 25.38882 -70.14112 36069 ft 433 kts 346°
2026-05-07 20:11 25.44785 -70.15477 36071 ft 433 kts 346°
2026-05-07 20:11 25.50694 -70.16845 36069 ft 433 kts 346°
2026-05-07 20:12 25.56593 -70.18212 36070 ft 433 kts 346°
2026-05-07 20:12 25.62489 -70.19580 36071 ft 433 kts 346°
2026-05-07 20:13 25.68390 -70.20950 36071 ft 433 kts 346°
2026-05-07 20:13 25.74275 -70.22318 36072 ft 432 kts 346°
2026-05-07 20:14 25.80167 -70.23689 36072 ft 432 kts 346°
2026-05-07 20:14 25.86056 -70.25061 36071 ft 432 kts 346°
2026-05-07 20:15 25.91941 -70.26433 36074 ft 432 kts 346°
2026-05-07 20:15 25.97813 -70.27804 36073 ft 432 kts 346°
2026-05-07 20:16 26.03691 -70.29177 36073 ft 432 kts 346°
2026-05-07 20:16 26.09549 -70.30547 36074 ft 431 kts 346°
2026-05-07 20:17 26.15429 -70.31923 36073 ft 431 kts 346°
2026-05-07 20:17 26.21304 -70.33300 36076 ft 431 kts 346°
2026-05-07 20:18 26.27172 -70.34677 36073 ft 431 kts 346°
2026-05-07 20:18 26.33037 -70.36054 36072 ft 431 kts 346°
2026-05-07 20:19 26.38912 -70.37435 36072 ft 431 kts 346°
2026-05-07 20:19 26.44775 -70.38815 36074 ft 431 kts 346°
2026-05-07 20:20 26.50598 -70.40187 36074 ft 430 kts 346°
2026-05-07 20:20 26.56461 -70.41569 36077 ft 430 kts 346°
2026-05-07 20:21 26.62324 -70.42953 36076 ft 430 kts 346°
2026-05-07 20:21 26.68182 -70.44338 36079 ft 430 kts 346°
2026-05-07 20:22 26.74037 -70.45723 36076 ft 430 kts 346°
2026-05-07 20:22 26.79901 -70.47111 36080 ft 430 kts 346°
2026-05-07 20:23 26.85721 -70.48491 36078 ft 430 kts 346°
2026-05-07 20:23 26.91587 -70.49883 36074 ft 430 kts 346°
2026-05-07 20:24 26.97444 -70.51275 36073 ft 430 kts 346°
2026-05-07 20:24 27.03298 -70.52667 36078 ft 430 kts 346°
2026-05-07 20:25 27.09160 -70.54062 36076 ft 430 kts 346°
2026-05-07 20:25 27.14979 -70.55449 36078 ft 430 kts 346°
2026-05-07 20:26 27.20833 -70.56846 36075 ft 430 kts 346°
2026-05-07 20:26 27.26684 -70.58243 36075 ft 430 kts 346°
2026-05-07 20:27 27.32543 -70.59644 36075 ft 430 kts 346°
2026-05-07 20:27 27.38399 -70.61046 36077 ft 430 kts 346°
2026-05-07 20:28 27.44242 -70.62446 36076 ft 430 kts 346°
2026-05-07 20:28 27.50092 -70.63849 36077 ft 430 kts 346°
2026-05-07 20:29 27.55943 -70.65254 36076 ft 429 kts 346°
2026-05-07 20:29 27.61752 -70.66651 36076 ft 429 kts 346°
2026-05-07 20:30 27.67594 -70.68056 36076 ft 429 kts 346°
2026-05-07 20:30 27.73441 -70.69465 36078 ft 429 kts 345°
2026-05-07 20:31 27.79282 -70.70874 36075 ft 429 kts 345°
2026-05-07 20:31 27.85115 -70.72282 36077 ft 429 kts 345°
2026-05-07 20:32 27.90949 -70.73692 36077 ft 429 kts 345°
2026-05-07 20:32 27.96789 -70.75105 36076 ft 429 kts 345°
2026-05-07 20:33 28.02619 -70.76518 36077 ft 428 kts 345°
2026-05-07 20:33 28.08457 -70.77933 36076 ft 428 kts 345°
2026-05-07 20:34 28.14245 -70.79339 36077 ft 428 kts 345°
2026-05-07 20:34 28.20072 -70.80755 36077 ft 428 kts 345°
2026-05-07 20:35 28.25893 -70.82171 36078 ft 428 kts 345°
2026-05-07 20:35 28.31716 -70.83590 36077 ft 428 kts 345°
2026-05-07 20:36 28.37539 -70.85010 36077 ft 428 kts 345°
2026-05-07 20:36 28.43360 -70.86431 36075 ft 428 kts 345°
2026-05-07 20:37 28.49178 -70.87853 36076 ft 427 kts 345°
2026-05-07 20:37 28.54992 -70.89275 36077 ft 427 kts 345°
2026-05-07 20:38 28.60809 -70.90699 36077 ft 427 kts 345°
2026-05-07 20:38 28.66615 -70.92123 36076 ft 427 kts 344°
2026-05-07 20:39 28.72390 -70.93540 36073 ft 427 kts 344°
2026-05-07 20:39 28.78202 -70.94968 36075 ft 427 kts 344°
2026-05-07 20:40 28.84006 -70.96396 36073 ft 427 kts 344°
2026-05-07 20:40 28.89813 -70.97829 36074 ft 427 kts 344°
2026-05-07 20:41 28.95614 -70.99261 36075 ft 426 kts 344°
2026-05-07 20:41 29.01412 -71.00693 36075 ft 426 kts 344°
2026-05-07 20:42 29.07208 -71.02126 36074 ft 426 kts 344°
2026-05-07 20:42 29.13003 -71.03561 36068 ft 426 kts 344°
2026-05-07 20:43 29.18795 -71.04996 36072 ft 426 kts 344°
2026-05-07 20:43 29.24584 -71.06433 36073 ft 426 kts 344°
2026-05-07 20:44 29.30380 -71.07872 36069 ft 426 kts 343°
2026-05-07 20:44 29.36134 -71.09304 36070 ft 426 kts 343°
2026-05-07 20:45 29.41921 -71.10744 36069 ft 426 kts 343°
2026-05-07 20:45 29.47716 -71.12189 36067 ft 426 kts 343°
2026-05-07 20:46 29.53509 -71.13634 36066 ft 426 kts 343°
2026-05-07 20:46 29.59310 -71.15084 36066 ft 426 kts 343°
2026-05-07 20:47 29.65100 -71.16532 36063 ft 426 kts 343°
2026-05-07 20:47 29.70900 -71.17985 36062 ft 426 kts 343°
2026-05-07 20:48 29.76688 -71.19436 36064 ft 426 kts 343°
2026-05-07 20:48 29.82446 -71.20881 36061 ft 426 kts 343°
2026-05-07 20:49 29.88241 -71.22338 36062 ft 426 kts 343°
2026-05-07 20:49 29.94039 -71.23797 36061 ft 426 kts 343°
2026-05-07 20:50 29.99830 -71.25256 36062 ft 426 kts 343°
2026-05-07 20:50 30.05582 -71.26706 36066 ft 410 kts 342°
2026-05-07 20:51 30.11057 -71.28089 36050 ft 399 kts 342°
2026-05-07 20:51 30.16478 -71.29460 36056 ft 400 kts 342°
2026-05-07 20:52 30.21919 -71.30837 36059 ft 400 kts 342°
2026-05-07 20:52 30.27363 -71.32217 36059 ft 400 kts 342°
2026-05-07 20:53 30.32798 -71.33595 36050 ft 400 kts 342°
2026-05-07 20:53 30.38199 -71.34967 36046 ft 400 kts 342°
2026-05-07 20:54 30.43632 -71.36348 36048 ft 400 kts 342°
2026-05-07 20:54 30.49071 -71.37733 36048 ft 400 kts 342°
2026-05-07 20:55 30.54506 -71.39118 36048 ft 400 kts 342°
2026-05-07 20:55 30.59938 -71.40503 36055 ft 400 kts 342°
2026-05-07 20:56 30.65380 -71.41893 36049 ft 400 kts 342°
2026-05-07 20:56 30.70817 -71.43284 36045 ft 400 kts 341°
2026-05-07 20:57 30.75351 -71.44444 36046 ft 400 kts 341°
2026-05-07 20:57 30.80791 -71.45838 36046 ft 400 kts 341°
2026-05-07 20:58 30.86230 -71.47234 36048 ft 400 kts 341°
2026-05-07 20:58 30.91679 -71.48633 36044 ft 401 kts 341°
2026-05-07 20:59 30.97128 -71.50034 36040 ft 401 kts 341°
2026-05-07 20:59 31.02577 -71.51437 36040 ft 401 kts 341°
2026-05-07 21:00 31.08020 -71.52840 36039 ft 401 kts 341°
2026-05-07 21:00 31.13463 -71.54245 36038 ft 401 kts 341°
2026-05-07 21:01 31.18871 -71.55642 36034 ft 400 kts 341°
2026-05-07 21:01 31.24318 -71.57051 36032 ft 401 kts 341°
2026-05-07 21:02 31.29757 -71.58460 36024 ft 401 kts 341°
2026-05-07 21:02 31.35210 -71.59873 36029 ft 401 kts 341°
2026-05-07 21:03 31.40674 -71.61292 36034 ft 401 kts 341°
2026-05-07 21:03 31.46125 -71.62708 36030 ft 401 kts 341°
2026-05-07 21:04 31.51627 -71.64140 36028 ft 409 kts 341°
2026-05-07 21:04 31.57209 -71.65594 36017 ft 417 kts 341°
2026-05-07 21:05 31.62937 -71.67088 36016 ft 425 kts 341°
2026-05-07 21:05 31.68759 -71.68609 36015 ft 430 kts 341°
2026-05-07 21:06 31.74592 -71.70134 36015 ft 430 kts 341°
2026-05-07 21:06 31.80438 -71.71664 36011 ft 430 kts 341°
2026-05-07 21:07 31.86284 -71.73197 36009 ft 430 kts 341°
2026-05-07 21:07 31.92125 -71.74730 36007 ft 431 kts 341°
2026-05-07 21:08 31.97978 -71.76268 36004 ft 431 kts 341°
2026-05-07 21:08 32.03835 -71.77810 35999 ft 431 kts 341°
2026-05-07 21:09 32.09685 -71.79353 35997 ft 431 kts 341°
2026-05-07 21:09 32.15509 -71.80891 35994 ft 432 kts 341°
2026-05-07 21:10 32.21411 -71.82450 35989 ft 432 kts 340°
2026-05-07 21:10 32.27265 -71.83999 35978 ft 432 kts 340°
2026-05-07 21:11 32.33127 -71.85553 35982 ft 432 kts 340°
2026-05-07 21:11 32.41891 -71.87879 35982 ft 432 kts 340°
2026-05-07 21:12 32.47769 -71.89442 35979 ft 432 kts 340°
2026-05-07 21:12 32.53629 -71.91002 35975 ft 432 kts 340°
2026-05-07 21:13 32.59509 -71.92569 35972 ft 432 kts 340°
2026-05-07 21:13 32.65379 -71.94137 35971 ft 432 kts 340°
2026-05-07 21:14 32.71249 -71.95705 35973 ft 432 kts 340°
2026-05-07 21:14 32.77125 -71.97278 35971 ft 433 kts 340°
2026-05-07 21:15 32.83005 -71.98854 35969 ft 433 kts 340°
2026-05-07 21:15 32.88852 -72.00424 35971 ft 433 kts 340°
2026-05-07 21:16 32.94731 -72.02003 35964 ft 433 kts 340°
2026-05-07 21:16 33.00615 -72.03586 35963 ft 433 kts 340°
2026-05-07 21:17 33.06500 -72.05173 35957 ft 434 kts 340°
2026-05-07 21:17 33.12389 -72.06762 35955 ft 434 kts 340°
2026-05-07 21:18 33.18284 -72.08355 35953 ft 434 kts 340°
2026-05-07 21:18 33.24183 -72.09952 35953 ft 434 kts 340°
2026-05-07 21:19 33.30076 -72.11548 35949 ft 434 kts 340°
2026-05-07 21:19 33.35964 -72.13146 35946 ft 434 kts 340°
2026-05-07 21:20 33.41864 -72.14750 35947 ft 435 kts 340°
2026-05-07 21:20 33.47769 -72.16356 35941 ft 435 kts 340°
2026-05-07 21:21 33.53633 -72.17954 35934 ft 435 kts 340°
2026-05-07 21:21 33.59542 -72.19567 35945 ft 435 kts 339°
2026-05-07 21:22 33.65441 -72.21179 35944 ft 435 kts 339°
2026-05-07 21:22 33.71358 -72.22798 35927 ft 435 kts 339°
2026-05-07 21:23 33.77260 -72.24415 35935 ft 436 kts 339°
2026-05-07 21:23 33.83173 -72.26038 35929 ft 436 kts 339°
2026-05-07 21:24 33.89091 -72.27664 35925 ft 436 kts 339°
2026-05-07 21:24 33.94995 -72.29289 35923 ft 436 kts 339°
2026-05-07 21:25 34.01038 -72.30450 35930 ft 444 kts 346°
2026-05-07 21:25 34.07203 -72.31128 35925 ft 445 kts 346°
2026-05-07 21:26 34.13344 -72.31792 35923 ft 446 kts 346°
2026-05-07 21:26 34.19565 -72.32462 35919 ft 446 kts 346°
2026-05-07 21:27 34.25713 -72.33125 35915 ft 447 kts 345°
2026-05-07 21:27 34.31908 -72.33793 35909 ft 447 kts 345°
2026-05-07 21:28 34.38111 -72.34463 35906 ft 448 kts 345°
2026-05-07 21:28 34.44316 -72.35134 35903 ft 448 kts 345°
2026-05-07 21:29 34.50545 -72.35809 35903 ft 449 kts 345°
2026-05-07 21:29 34.56781 -72.36486 35900 ft 450 kts 345°
2026-05-07 21:30 34.63021 -72.37164 35892 ft 451 kts 345°
2026-05-07 21:30 34.69272 -72.37844 35891 ft 451 kts 345°
2026-05-07 21:31 34.75600 -72.37613 35898 ft 468 kts 358°
2026-05-07 21:31 34.82072 -72.36609 35885 ft 470 kts 358°
2026-05-07 21:32 34.88558 -72.35556 35876 ft 470 kts 358°
2026-05-07 21:32 34.95051 -72.34494 35873 ft 471 kts 358°
2026-05-07 21:33 34.98288 -72.34217 35871 ft 460 kts 351°
2026-05-07 21:33 35.01492 -72.34155 35878 ft 462 kts 351°
2026-05-07 21:33 35.07911 -72.34052 35870 ft 461 kts 351°
2026-05-07 21:34 35.14298 -72.33961 35865 ft 462 kts 350°
2026-05-07 21:34 35.20724 -72.33870 35865 ft 462 kts 350°
2026-05-07 21:35 35.27156 -72.33778 35858 ft 462 kts 350°
2026-05-07 21:35 35.33585 -72.33686 35856 ft 461 kts 349°
2026-05-07 21:36 35.39993 -72.33595 35850 ft 460 kts 349°
2026-05-07 21:36 35.46399 -72.33503 35845 ft 460 kts 349°
2026-05-07 21:37 35.52795 -72.33411 35842 ft 459 kts 349°
2026-05-07 21:37 35.59188 -72.33320 35839 ft 459 kts 348°
2026-05-07 21:38 35.65571 -72.33228 35840 ft 458 kts 348°
2026-05-07 21:38 35.71944 -72.33136 35832 ft 457 kts 348°
2026-05-07 21:39 35.78262 -72.33045 35827 ft 457 kts 348°
2026-05-07 21:39 35.84619 -72.32953 35822 ft 457 kts 348°
2026-05-07 21:40 35.90989 -72.32861 35814 ft 457 kts 348°
2026-05-07 21:40 35.97349 -72.32768 35806 ft 457 kts 348°
2026-05-07 21:41 36.03691 -72.32805 35796 ft 444 kts 339°
2026-05-07 21:41 36.06620 -72.33630 35821 ft 431 kts 334°
2026-05-07 21:41 36.09546 -72.34518 35798 ft 433 kts 334°
2026-05-07 21:42 36.15384 -72.36353 35810 ft 432 kts 333°
2026-05-07 21:42 36.21210 -72.38232 35810 ft 432 kts 333°
2026-05-07 21:43 36.27033 -72.40118 35804 ft 433 kts 333°
2026-05-07 21:43 36.31880 -72.41690 35803 ft 433 kts 333°
2026-05-07 21:44 36.38669 -72.43896 35803 ft 433 kts 333°
2026-05-07 21:44 36.44504 -72.45795 35801 ft 434 kts 333°
2026-05-07 21:45 36.49357 -72.47377 35809 ft 434 kts 332°
2026-05-07 21:45 36.55198 -72.49283 35815 ft 434 kts 332°
2026-05-07 21:46 36.61031 -72.51189 35789 ft 432 kts 332°
2026-05-07 21:46 36.66865 -72.53099 35790 ft 434 kts 332°
2026-05-07 21:47 36.72946 -72.54176 35833 ft 458 kts 346°
2026-05-07 21:47 36.79319 -72.54369 35816 ft 458 kts 345°
2026-05-07 21:48 36.85689 -72.54523 35820 ft 458 kts 345°
2026-05-07 21:48 36.92070 -72.54666 35824 ft 458 kts 345°
2026-05-07 21:49 36.98413 -72.54806 35829 ft 459 kts 345°
2026-05-07 21:49 37.04806 -72.54946 35833 ft 460 kts 345°
2026-05-07 21:50 37.11205 -72.55086 35839 ft 460 kts 346°
2026-05-07 21:50 37.17657 -72.55228 35843 ft 462 kts 346°
2026-05-07 21:51 37.24128 -72.54602 35826 ft 494 kts
2026-05-07 21:51 37.30725 -72.51822 35838 ft 502 kts
2026-05-07 21:52 37.37358 -72.48929 35847 ft 505 kts
2026-05-07 21:52 37.43978 -72.46009 35848 ft 505 kts
2026-05-07 21:53 37.50635 -72.43069 35847 ft 510 kts
2026-05-07 21:53 37.57386 -72.40080 35848 ft 517 kts
2026-05-07 21:54 37.64183 -72.37064 35854 ft 518 kts
2026-05-07 21:54 37.70994 -72.34037 35849 ft 519 kts
2026-05-07 21:55 37.77774 -72.31017 35852 ft 521 kts
2026-05-07 21:55 37.84533 -72.27542 35841 ft 539 kts 21°
2026-05-07 21:56 37.91020 -72.22747 35845 ft 540 kts 20°
2026-05-07 21:56 37.97522 -72.17976 35848 ft 540 kts 21°
2026-05-07 21:57 38.04022 -72.13194 35853 ft 540 kts 21°
2026-05-07 21:57 38.10535 -72.08391 35856 ft 541 kts 21°
2026-05-07 21:58 38.17055 -72.03574 35854 ft 543 kts 21°
2026-05-07 21:58 38.23598 -71.98730 35862 ft 544 kts 21°
2026-05-07 21:59 38.26951 -71.96616 35852 ft 530 kts
2026-05-07 21:59 38.30442 -71.95575 35856 ft 503 kts 352°
2026-05-07 21:59 38.37368 -71.95316 35864 ft 499 kts 349°
2026-05-07 22:00 38.44320 -71.95195 35862 ft 500 kts 348°
2026-05-07 22:00 38.51244 -71.95119 35859 ft 501 kts 348°
2026-05-07 22:01 38.58227 -71.95046 35871 ft 503 kts 348°
2026-05-07 22:01 38.65250 -71.94958 35871 ft 505 kts 348°
2026-05-07 22:02 38.72313 -71.94867 35880 ft 507 kts 347°
2026-05-07 22:02 38.79391 -71.94774 35874 ft 510 kts 347°
2026-05-07 22:03 38.86487 -71.94682 35876 ft 510 kts 347°
2026-05-07 22:03 38.93581 -71.94612 35871 ft 505 kts 344°
2026-05-07 22:04 38.96947 -71.95242 35869 ft 476 kts 330°
2026-05-07 22:04 38.99941 -71.96724 35856 ft 446 kts 315°
2026-05-07 22:04 39.02476 -71.98869 35884 ft 434 kts 310°
2026-05-07 22:04 39.04909 -72.01148 35871 ft 431 kts 308°
2026-05-07 22:05 39.09613 -72.05873 35880 ft 427 kts 307°
2026-05-07 22:05 39.14231 -72.10667 35882 ft 426 kts 307°
2026-05-07 22:06 39.18812 -72.15473 35881 ft 425 kts 306°
2026-05-07 22:06 39.23367 -72.20264 35887 ft 424 kts 306°
2026-05-07 22:07 39.27963 -72.25107 35881 ft 423 kts 306°
2026-05-07 22:07 39.32483 -72.29877 35880 ft 422 kts 306°
2026-05-07 22:08 39.37026 -72.34681 35883 ft 422 kts 306°
2026-05-07 22:08 39.41563 -72.39487 35895 ft 421 kts 306°
2026-05-07 22:09 39.46102 -72.44302 35882 ft 421 kts 306°
2026-05-07 22:09 39.50618 -72.49102 35889 ft 420 kts 306°
2026-05-07 22:10 39.55144 -72.53922 35883 ft 420 kts 306°
2026-05-07 22:10 39.59634 -72.58711 35896 ft 419 kts 306°
2026-05-07 22:11 39.64144 -72.63530 35886 ft 419 kts 306°
2026-05-07 22:11 39.68644 -72.68349 35888 ft 419 kts 306°
2026-05-07 22:12 39.73144 -72.73171 35887 ft 418 kts 306°
2026-05-07 22:12 39.77629 -72.77987 35888 ft 419 kts 306°
2026-05-07 22:13 39.82103 -72.82726 35878 ft 428 kts 312°
2026-05-07 22:13 39.84847 -72.84669 35901 ft 443 kts 318°
2026-05-07 22:13 39.87542 -72.86502 35870 ft 442 kts 317°
2026-05-07 22:14 39.93015 -72.90206 35886 ft 443 kts 318°
2026-05-07 22:14 39.98496 -72.93888 35885 ft 443 kts 318°
2026-05-07 22:15 40.03979 -72.97577 35887 ft 443 kts 318°
2026-05-07 22:15 40.09456 -73.01270 35875 ft 443 kts 318°
2026-05-07 22:16 40.14935 -73.04971 35876 ft 443 kts 318°
2026-05-07 22:16 40.18358 -73.07255 35883 ft 448 kts 322°
2026-05-07 22:17 40.21053 -73.08431 35864 ft 472 kts 335°
2026-05-07 22:18 40.24420 -73.08777 35864 ft 503 kts 351°
2026-05-07 22:18 40.31344 -73.05653 35852 ft 559 kts 29°
2026-05-07 22:18 40.34210 -73.02113 35874 ft 575 kts 44°
2026-05-07 22:19 40.36926 -72.98349 35849 ft 571 kts 36°
2026-05-07 22:19 40.42772 -72.91284 35867 ft 573 kts 36°
2026-05-07 22:20 40.48608 -72.84160 35858 ft 573 kts 36°
2026-05-07 22:20 40.54435 -72.77030 35863 ft 573 kts 37°
2026-05-07 22:21 40.60279 -72.69863 35858 ft 573 kts 37°
2026-05-07 22:21 40.63170 -72.66309 35712 ft 566 kts 37°
2026-05-07 22:21 40.66034 -72.62786 35421 ft 561 kts 37°
2026-05-07 22:21 40.68879 -72.59281 35133 ft 561 kts 37°
2026-05-07 22:22 40.71734 -72.55761 34837 ft 561 kts 37°
2026-05-07 22:22 40.74587 -72.52237 34547 ft 562 kts 37°
2026-05-07 22:22 40.77422 -72.48732 34266 ft 563 kts 37°
2026-05-07 22:22 40.80305 -72.45163 33983 ft 564 kts 37°
2026-05-07 22:23 40.83160 -72.41625 33664 ft 565 kts 37°
2026-05-07 22:23 40.86035 -72.38056 33338 ft 566 kts 37°
2026-05-07 22:23 40.88892 -72.34506 32984 ft 560 kts 37°
2026-05-07 22:23 40.91765 -72.31067 32338 ft 552 kts 31°
2026-05-07 22:24 40.94853 -72.28114 31645 ft 548 kts 28°
2026-05-07 22:24 40.97971 -72.25174 30974 ft 553 kts 28°
2026-05-07 22:24 41.01122 -72.22203 30317 ft 554 kts 29°
2026-05-07 22:24 41.04250 -72.19255 29651 ft 551 kts 29°
2026-05-07 22:25 41.07364 -72.16318 28920 ft 548 kts 29°
2026-05-07 22:25 41.10469 -72.13384 28225 ft 545 kts 29°
2026-05-07 22:25 41.13545 -72.10476 27541 ft 542 kts 29°
2026-05-07 22:25 41.16611 -72.07573 26878 ft 539 kts 29°
2026-05-07 22:26 41.19616 -72.04726 26218 ft 536 kts 29°
2026-05-07 22:26 41.22644 -72.01853 25588 ft 533 kts 29°
2026-05-07 22:26 41.25644 -71.99002 24981 ft 529 kts 30°
2026-05-07 22:26 41.28594 -71.96195 24390 ft 514 kts 30°
2026-05-07 22:27 41.31448 -71.93477 23826 ft 500 kts 30°
2026-05-07 22:27 41.34256 -71.90801 23230 ft 487 kts 30°
2026-05-07 22:27 41.36977 -71.88204 22551 ft 476 kts 30°
2026-05-07 22:27 41.39639 -71.85661 21910 ft 465 kts 30°
2026-05-07 22:28 41.42221 -71.83192 21459 ft 451 kts 30°
2026-05-07 22:28 41.44735 -71.80786 21067 ft 437 kts 30°
2026-05-07 22:28 41.47171 -71.78453 20672 ft 427 kts 30°
2026-05-07 22:28 41.49577 -71.76144 20272 ft 424 kts 30°
2026-05-07 22:29 41.51968 -71.73848 19866 ft 423 kts 30°
2026-05-07 22:29 41.54346 -71.71563 19474 ft 421 kts 30°
2026-05-07 22:29 41.56719 -71.69281 19070 ft 416 kts 31°
2026-05-07 22:29 41.59035 -71.67054 18754 ft 407 kts 31°
2026-05-07 22:30 41.61325 -71.64848 18423 ft 405 kts 31°
2026-05-07 22:30 41.63610 -71.62646 18105 ft 403 kts 31°
2026-05-07 22:30 41.65843 -71.60477 17681 ft 402 kts 34°
2026-05-07 22:30 41.67758 -71.57773 17213 ft 399 kts 56°
2026-05-07 22:31 41.68994 -71.54475 16756 ft 398 kts 68°
2026-05-07 22:31 41.70032 -71.51062 16423 ft 395 kts 69°
2026-05-07 22:31 41.71057 -71.47633 16108 ft 394 kts 69°
2026-05-07 22:31 41.72060 -71.44229 15974 ft 394 kts 69°
2026-05-07 22:32 41.73305 -71.40935 15072 ft 401 kts 58°
2026-05-07 22:32 41.74240 -71.38793 14702 ft 397 kts 59°
2026-05-07 22:32 41.75609 -71.35609 14106 ft 393 kts 59°
2026-05-07 22:32 41.76962 -71.32447 13465 ft 390 kts 59°
2026-05-07 22:33 41.78309 -71.29294 12759 ft 387 kts 59°
2026-05-07 22:33 41.79643 -71.26168 12042 ft 385 kts 59°
2026-05-07 22:33 41.80949 -71.23103 11444 ft 379 kts 59°
2026-05-07 22:33 41.82262 -71.20053 11021 ft 367 kts 57°
2026-05-07 22:34 41.83527 -71.17214 11008 ft 345 kts 57°
2026-05-07 22:34 41.84736 -71.14490 11011 ft 334 kts 57°
2026-05-07 22:34 41.85913 -71.11835 10808 ft 333 kts 57°
2026-05-07 22:34 41.87119 -71.09112 10171 ft 344 kts 57°
2026-05-07 22:35 41.88362 -71.06309 9540 ft 353 kts 57°
2026-05-07 22:35 41.89610 -71.03517 9465 ft 342 kts 57°
2026-05-07 22:35 41.90804 -71.00840 9474 ft 328 kts 57°
2026-05-07 22:35 41.91915 -70.98244 9479 ft 315 kts 59°
2026-05-07 22:36 41.92948 -70.95724 9472 ft 301 kts 59°
2026-05-07 22:36 41.93991 -70.93211 9322 ft 316 kts 59°
2026-05-07 22:36 41.95079 -70.90597 9101 ft 323 kts 59°
2026-05-07 22:36 41.96182 -70.87951 8968 ft 325 kts 59°
2026-05-07 22:37 41.97288 -70.85293 8968 ft 325 kts 59°
2026-05-07 22:37 41.98375 -70.82684 8978 ft 326 kts 59°
2026-05-07 22:37 41.99487 -70.80011 8988 ft 326 kts 59°
2026-05-07 22:37 42.00594 -70.77350 8981 ft 326 kts 59°
2026-05-07 22:38 42.01894 -70.74883 8992 ft 320 kts 45°
2026-05-07 22:38 42.03394 -70.72703 8997 ft 314 kts 43°
2026-05-07 22:38 42.05095 -70.70952 8900 ft 303 kts 22°
2026-05-07 22:38 42.06987 -70.69829 8682 ft 293 kts 16°
2026-05-07 22:39 42.08857 -70.68817 8418 ft 288 kts 16°
2026-05-07 22:39 42.10708 -70.67830 8129 ft 285 kts 16°
2026-05-07 22:39 42.12557 -70.66857 7769 ft 283 kts 16°
2026-05-07 22:39 42.14386 -70.65897 7442 ft 282 kts 16°
2026-05-07 22:40 42.16212 -70.64944 7071 ft 281 kts 16°
2026-05-07 22:40 42.18045 -70.64008 6629 ft 281 kts 16°
2026-05-07 22:40 42.19865 -70.63095 6201 ft 279 kts 15°
2026-05-07 22:40 42.21675 -70.62190 5780 ft 276 kts 16°
2026-05-07 22:41 42.23462 -70.61302 5477 ft 273 kts 15°
2026-05-07 22:41 42.25244 -70.60405 5251 ft 272 kts 15°
2026-05-07 22:41 42.27023 -70.59547 5012 ft 270 kts 10°
2026-05-07 22:41 42.28832 -70.59471 4736 ft 256 kts 342°
2026-05-07 22:42 42.30531 -70.60079 4452 ft 251 kts 336°
2026-05-07 22:42 42.32196 -70.60764 4130 ft 250 kts 336°
2026-05-07 22:42 42.33841 -70.61445 3808 ft 241 kts 336°
2026-05-07 22:42 42.35399 -70.62084 3497 ft 229 kts 336°
2026-05-07 22:43 42.36873 -70.62662 3260 ft 211 kts 335°
2026-05-07 22:43 42.38232 -70.63156 3070 ft 197 kts 336°
2026-05-07 22:43 42.39545 -70.63633 2994 ft 196 kts 336°
2026-05-07 22:43 42.40713 -70.64414 2935 ft 179 kts 306°
2026-05-07 22:44 42.41242 -70.65799 2977 ft 164 kts 270°
2026-05-07 22:44 42.41211 -70.67317 3028 ft 161 kts 260°
2026-05-07 22:44 42.41077 -70.68813 3011 ft 161 kts 258°
2026-05-07 22:44 42.40901 -70.70305 3007 ft 160 kts 257°
2026-05-07 22:45 42.40697 -70.71780 3004 ft 159 kts 256°
2026-05-07 22:45 42.40472 -70.73245 3004 ft 159 kts 255°
2026-05-07 22:45 42.40235 -70.74703 2996 ft 158 kts 254°
2026-05-07 22:45 42.39991 -70.76154 2994 ft 159 kts 254°
2026-05-07 22:46 42.39741 -70.77622 2994 ft 160 kts 254°
2026-05-07 22:46 42.39489 -70.79078 2876 ft 159 kts 254°
2026-05-07 22:46 42.39236 -70.80535 2692 ft 158 kts 254°
2026-05-07 22:46 42.38985 -70.81964 2500 ft 156 kts 253°
2026-05-07 22:47 42.38735 -70.83386 2310 ft 156 kts 253°
2026-05-07 22:47 42.38486 -70.84809 2101 ft 155 kts 253°
2026-05-07 22:47 42.38235 -70.86233 1886 ft 157 kts 251°
2026-05-07 22:47 42.37978 -70.87685 1692 ft 157 kts 251°
2026-05-07 22:48 42.37743 -70.89026 1483 ft 140 kts 251°
2026-05-07 22:48 42.37518 -70.90299 1298 ft 139 kts 252°
2026-05-07 22:48 42.37297 -70.91557 1111 ft 137 kts 250°
2026-05-07 22:48 42.37068 -70.92817 916 ft 141 kts 254°
2026-05-07 22:49 42.36847 -70.94091 766 ft 140 kts 254°
2026-05-07 22:49 42.36616 -70.95375 553 ft 139 kts 258°
2026-05-07 22:49 42.36398 -70.96642 396 ft 142 kts 258°
2026-05-07 22:49 42.36165 -70.97946 182 ft 141 kts 261°
2026-05-07 22:50 42.35946 -70.99214 30 ft 131 kts 261°
2026-05-07 22:50 42.35768 -71.00240 28 ft 90 kts 255°
2026-05-07 22:50 42.35651 -71.00875 28 ft 53 kts 255°
2026-05-07 22:50 42.35665 -71.01188 28 ft 21 kts 309°
2026-05-07 22:51 42.35731 -71.01283 28 ft 13 kts 296°
2026-05-07 22:51 42.35763 -71.01399 28 ft 14 kts 290°
2026-05-07 22:51 42.35797 -71.01526 28 ft 15 kts 292°
2026-05-07 22:51 42.35855 -71.01567 28 ft 5 kts 12°
2026-05-07 22:52 42.35896 -71.01557 28 ft 7 kts 13°
2026-05-07 22:52 42.35946 -71.01536 28 ft 8 kts 24°
2026-05-07 22:52 42.36006 -71.01499 28 ft 11 kts 24°
2026-05-07 22:52 42.36082 -71.01460 28 ft 13 kts 20°
2026-05-07 22:53 42.36171 -71.01416 28 ft 15 kts 20°
2026-05-07 22:53 42.36274 -71.01366 28 ft 17 kts 19°
2026-05-07 22:53 42.36363 -71.01326 28 ft 12 kts 17°
2026-05-07 22:53 42.36446 -71.01285 28 ft 14 kts 21°
2026-05-07 22:54 42.36543 -71.01236 28 ft 16 kts 21°
2026-05-07 22:54 42.36654 -71.01181 28 ft 18 kts 19°
2026-05-07 22:54 42.36769 -71.01147 28 ft 18 kts 350°
2026-05-07 22:54 42.36844 -71.01263 28 ft 17 kts 267°
2026-05-07 22:55 42.36891 -71.01408 28 ft 19 kts 317°
2026-05-07 22:55 42.36977 -71.01523 28 ft 18 kts 315°
2026-05-07 22:55 42.37060 -71.01641 28 ft 18 kts 315°
2026-05-07 22:55 42.37138 -71.01784 28 ft 20 kts 306°
2026-05-07 22:56 42.37216 -71.01946 28 ft 21 kts 300°
2026-05-07 22:56 42.37237 -71.02123 28 ft 15 kts 255°
2026-05-07 22:56 42.37161 -71.02227 28 ft 17 kts 223°
2026-05-07 22:56 42.37164 -71.02365 28 ft 13 kts 309°
2026-05-07 22:57 42.37176 -71.02451 28 ft 10 kts 214°
2026-05-07 22:57 42.37138 -71.02499 28 ft 2 kts 225°
2026-05-07 22:57 42.37137 -71.02502 28 ft 0 kts 226°
2026-05-07 23:03 42.37137 -71.02501 28 ft 0 kts 226°